Thedford, NE

11:09 AM CDT on May 22, 2017 (GMT -0500)
Thedford

Weather History for KTIF - April, 2014

Change the Weather History Date:

Monday, April 14, 2014

  Actual Average (KANW) Record (KANW)
Temperature  
Mean Temperature 30 °F -  
Max Temperature 43 °F 56 °F 87 °F (2003)
Min Temperature 18 °F 33 °F 19 °F (2014)
Degree Days  
Heating Degree Days 34    
Moisture  
Dew Point 16 °F    
Average Humidity 54    
Maximum Humidity 81    
Minimum Humidity 26    
Precipitation  
Precipitation 0.00 in - - ()
Sea Level Pressure  
Sea Level Pressure 30.17 in    
Wind  
Wind Speed 14 mph (NW)    
Max Wind Speed 26 mph    
Max Gust Speed 36 mph    
Visibility 10 miles    
Events      
Averages and records for this station are not official NWS values.
T = Trace of Precipitation, MM = Missing Value Source: NWS Daily Summary

Daily Weather History Graph

Daily Weather History Graph

Search for Another Location

Airport or City:

Trip Planner

Search our weather history database for the weather conditions in past years. The results will help you decide how hot, cold, wet, or windy it might be!

Date:

Astronomy

Apr. 14, 2014 Rise Set
Actual Time 7:03 AM CDT 8:22 PM CDT
Civil Twilight 6:34 AM CDT 8:51 PM CDT
Nautical Twilight 5:59 AM CDT 9:26 PM CDT
Astronomical Twilight 5:23 AM CDT 10:02 PM CDT
Moon 8:02 PM CDT (4/14) 6:37 AM CDT (4/14)
Length of Visible Light 14h 16m
Length of Day
13h 18m
Full, 100% of the Moon is Illuminated
Apr 14
Full
Apr 15
Full
Apr 22
Last Quarter
Apr 29
New
May 6
First Quarter

Hourly Weather History & Observations

Time (CDT) Temp. Windchill Dew Point Humidity Pressure Visibility Wind Dir Wind Speed Gust Speed Precip Events Conditions
12:15 AM 30.2 °F 17.8 °F 18.1 °F 61% 30.16 in 10.0 mi North 19.6 mph 27.6 mph N/A   Overcast
12:35 AM 30.0 °F 17.2 °F 17.2 °F 59% 30.17 in 10.0 mi North 20.7 mph 29.9 mph N/A   Overcast
12:55 AM 29.7 °F 16.4 °F 17.1 °F 59% 30.17 in 10.0 mi North 21.9 mph 31.1 mph N/A   Overcast
1:15 AM 29.3 °F 16.6 °F 17.2 °F 61% 30.19 in 10.0 mi North 19.6 mph 28.8 mph N/A   Overcast
1:35 AM 29.1 °F 16.4 °F 16.9 °F 60% 30.19 in 10.0 mi North 19.6 mph 27.6 mph N/A   Overcast
1:55 AM 28.8 °F 17.9 °F 17.4 °F 63% 30.20 in 10.0 mi North 13.8 mph 20.7 mph N/A   Overcast
2:15 AM 28.8 °F 17.9 °F 17.6 °F 63% 30.21 in 10.0 mi North 13.8 mph 24.2 mph N/A   Overcast
2:35 AM 28.4 °F 16.6 °F 17.1 °F 63% 30.20 in 10.0 mi North 16.1 mph 24.2 mph N/A   Overcast
2:55 AM 28.2 °F 17.2 °F 17.1 °F 63% 30.19 in 10.0 mi North 13.8 mph - N/A   Overcast
3:15 AM 28.0 °F 17.5 °F 17.1 °F 63% 30.17 in 10.0 mi North 12.7 mph - N/A   Overcast
3:35 AM 27.5 °F 16.8 °F 16.9 °F 64% 30.19 in 10.0 mi North 12.7 mph - N/A   Overcast
3:55 AM 27.3 °F 17.1 °F 16.9 °F 65% 30.19 in 10.0 mi North 11.5 mph - N/A   Overcast
4:15 AM 26.6 °F 17.5 °F 17.6 °F 69% 30.19 in 10.0 mi NNW 9.2 mph - N/A   Mostly Cloudy
4:35 AM 26.1 °F 16.2 °F 17.1 °F 69% 30.20 in 10.0 mi NNW 10.4 mph - N/A   Scattered Clouds
4:55 AM 25.3 °F 16.7 °F 16.5 °F 69% 30.20 in 10.0 mi NW 8.1 mph - N/A   Clear
5:15 AM 23.7 °F 16.6 °F 15.8 °F 72% 30.20 in 10.0 mi NW 5.8 mph - N/A   Clear
5:35 AM 22.5 °F 15.1 °F 15.4 °F 74% 30.20 in 10.0 mi NW 5.8 mph - N/A   Clear
5:55 AM 21.0 °F 13.4 °F 14.9 °F 77% 30.20 in 10.0 mi WNW 5.8 mph - N/A   Clear
6:15 AM 20.7 °F 13.0 °F 14.9 °F 78% 30.19 in 10.0 mi WNW 5.8 mph - N/A   Clear
6:35 AM 20.1 °F 11.3 °F 14.2 °F 78% 30.21 in 10.0 mi West 6.9 mph - N/A   Clear
6:55 AM 19.0 °F 11.1 °F 14.0 °F 81% 30.21 in 10.0 mi West 5.8 mph - N/A   Clear
7:15 AM 18.7 °F 11.9 °F 13.8 °F 81% 30.22 in 10.0 mi West 4.6 mph - N/A   Clear
7:35 AM 19.8 °F 11.9 °F 14.0 °F 78% 30.22 in 10.0 mi WNW 5.8 mph - N/A   Clear
7:55 AM 19.8 °F 10.8 °F 14.2 °F 79% 30.22 in 10.0 mi WNW 6.9 mph - N/A   Clear
8:15 AM 21.6 °F 14.0 °F 14.7 °F 75% 30.22 in 10.0 mi West 5.8 mph - N/A   Clear
8:35 AM 22.6 °F 11.9 °F 14.9 °F 72% 30.22 in 10.0 mi WNW 10.4 mph - N/A   Clear
8:55 AM 24.1 °F 15.2 °F 15.1 °F 69% 30.22 in 10.0 mi WNW 8.1 mph - N/A   Clear
9:15 AM 26.6 °F 20.0 °F 15.8 °F 64% 30.21 in 10.0 mi WNW 5.8 mph - N/A   Clear
9:35 AM 29.1 °F 21.3 °F 17.4 °F 62% 30.21 in 10.0 mi West 8.1 mph - N/A   Clear
9:55 AM 30.7 °F 22.0 °F 18.5 °F 60% 30.20 in 10.0 mi West 10.4 mph - N/A   Clear
10:15 AM 32.0 °F 22.1 °F 19.4 °F 60% 30.20 in 10.0 mi West 13.8 mph 17.3 mph N/A   Clear
10:35 AM 33.4 °F 23.9 °F 20.3 °F 59% 30.20 in 10.0 mi WNW 13.8 mph - N/A   Clear
10:55 AM 35.1 °F 26.9 °F 21.0 °F 57% 30.20 in 10.0 mi WNW 11.5 mph - N/A   Clear
11:15 AM 36.7 °F 27.2 °F 22.5 °F 56% 30.20 in 10.0 mi WNW 16.1 mph 20.7 mph N/A   Scattered Clouds
11:35 AM 37.6 °F 29.1 °F 22.3 °F 54% 30.20 in 10.0 mi WNW 13.8 mph 19.6 mph N/A   Scattered Clouds
11:55 AM 38.3 °F 28.7 °F 22.3 °F 53% 30.20 in 10.0 mi WNW 18.4 mph 23.0 mph N/A   Scattered Clouds
12:35 PM 38.5 °F 29.2 °F 22.6 °F 53% 30.19 in 10.0 mi NW 17.3 mph 24.2 mph N/A   Scattered Clouds
12:55 PM 39.2 °F 30.5 °F 22.8 °F 52% 30.18 in 10.0 mi NW 16.1 mph 23.0 mph N/A   Clear
1:15 PM 40.5 °F 31.8 °F 23.4 °F 51% 30.17 in 10.0 mi NW 17.3 mph 23.0 mph N/A   Clear
1:35 PM 39.6 °F 30.6 °F 20.5 °F 46% 30.16 in 10.0 mi NW 17.3 mph 25.3 mph N/A   Mostly Cloudy
1:55 PM 40.3 °F 30.7 °F 19.9 °F 44% 30.16 in 10.0 mi NW 20.7 mph 28.8 mph N/A   Mostly Cloudy
2:15 PM 38.7 °F 27.8 °F 25.9 °F 60% 30.18 in 10.0 mi NNW 24.2 mph 31.1 mph N/A   Mostly Cloudy
2:35 PM 37.6 °F 28.4 °F 25.2 °F 61% 30.17 in 10.0 mi NW 16.1 mph 31.1 mph N/A   Mostly Cloudy
3:15 PM 40.5 °F 30.4 °F 21.2 °F 46% 30.15 in 10.0 mi NNW 23.0 mph 28.8 mph N/A   Mostly Cloudy
3:35 PM 41.2 °F 31.4 °F 16.3 °F 37% 30.14 in 10.0 mi NNW 23.0 mph 32.2 mph N/A   Scattered Clouds
3:55 PM 43.0 °F 33.8 °F 15.1 °F 32% 30.14 in 10.0 mi NNW 23.0 mph 35.7 mph N/A   Scattered Clouds
4:15 PM 42.8 °F 32.9 °F 13.6 °F 31% 30.14 in 10.0 mi NW 26.5 mph 34.5 mph N/A   Scattered Clouds
4:35 PM 42.8 °F 33.8 °F 13.6 °F 31% 30.13 in 10.0 mi NNW 21.9 mph 29.9 mph N/A   Scattered Clouds
4:55 PM 42.8 °F 34.3 °F 12.4 °F 29% 30.13 in 10.0 mi NW 19.6 mph 28.8 mph N/A   Clear
5:15 PM 43.5 °F 35.2 °F 11.7 °F 27% 30.12 in 10.0 mi NW 19.6 mph 26.5 mph N/A   Clear
5:35 PM 43.0 °F 33.5 °F 10.4 °F 27% 30.12 in 10.0 mi NNW 24.2 mph 31.1 mph N/A   Clear
5:55 PM 42.8 °F 33.8 °F 9.9 °F 26% 30.12 in 10.0 mi NNW 21.9 mph 29.9 mph N/A   Clear
6:15 PM 42.8 °F 35.1 °F 12.0 °F 29% 30.13 in 10.0 mi North 16.1 mph 23.0 mph N/A   Clear
6:35 PM 41.7 °F 33.7 °F 10.9 °F 28% 30.13 in 10.0 mi North 16.1 mph 24.2 mph N/A   Clear
6:55 PM 41.2 °F 32.4 °F 10.8 °F 29% 30.14 in 10.0 mi NNW 18.4 mph 23.0 mph N/A   Clear
7:15 PM 40.3 °F 31.3 °F 10.2 °F 29% 30.14 in 10.0 mi North 18.4 mph 23.0 mph N/A   Clear
7:35 PM 39.6 °F 31.7 °F 10.8 °F 31% 30.14 in 10.0 mi North 13.8 mph 18.4 mph N/A   Clear
7:55 PM 38.3 °F 30.5 °F 10.9 °F 32% 30.14 in 10.0 mi North 12.7 mph - N/A   Clear
8:15 PM 37.2 °F 30.0 °F 10.8 °F 34% 30.14 in 10.0 mi North 10.4 mph 16.1 mph N/A   Clear
8:35 PM 35.4 °F 30.5 °F 13.6 °F 41% 30.14 in 10.0 mi North 5.8 mph - N/A   Clear
8:55 PM 34.2 °F 30.0 °F 13.5 °F 43% 30.14 in 10.0 mi North 4.6 mph - N/A   Clear
9:15 PM 33.4 °F - 13.5 °F 44% 30.15 in 10.0 mi Calm Calm - N/A   Clear
9:35 PM 32.0 °F - 14.4 °F 48% 30.15 in 10.0 mi Calm Calm - N/A   Clear
9:55 PM 31.8 °F - 14.7 °F 49% 30.16 in 10.0 mi Calm Calm - N/A   Clear
10:15 PM 32.0 °F 28.7 °F 13.1 °F 46% 30.16 in 10.0 mi NNE 3.5 mph - N/A   Clear
10:35 PM 31.6 °F - 13.5 °F 47% 30.16 in 10.0 mi Calm Calm - N/A   Clear
11:15 PM 29.3 °F - 15.4 °F 56% 30.14 in 10.0 mi Calm Calm - N/A   Clear
11:35 PM 28.9 °F 25.2 °F 15.4 °F 57% 30.14 in 10.0 mi SE 3.5 mph - N/A   Clear